Weather in Bedyarysh

Russia / Chelyabinsk Oblast     54°39′16″N   57°41′37″E
temp.,
°C
wind,
m/s
gust,
m/s
humid.,
%
clouds,
%
prec.,
mm/h
press.,
hPa
HPBL,
m
12 april, mon
mon1223:00+7ssw2289100 0.0 103415
02:00+6s2293100 0.0 103423
05:00+5ssw1191100 0.0 103511
08:00+6ssw2284100 0.0 103658
11:00+11w1267100 0.0 1035381
14:00+11n2177100 0.1 1035452
17:00+8ne1294100 0.2 1037146
20:00+6ne239995 0.0 1038173
13 april, tue
tue1323:00+5ne2399100 0.0 1039132
02:00+5ene129999 0.0 1039122
05:00+5se129993 0.0 103955
08:00+7se129359 0.0 1040176
11:00+12se117118 0.0 1039507
14:00+15wsw125963 0.0 10371190
17:00+14wnw126490 0.0 1036479
20:00+11w1176100 0.0 103610
14 april, wed
wed1423:00+8ssw218353 0.0 103610
02:00+7ssw118530 0.0 103610
05:00+5ssw118636 0.0 103610
08:00+7sse117918 0.0 103536
11:00+13e115654 0.0 1033528
14:00+17se12425 0.0 10311022
17:00+17wsw22385 0.0 10291211
20:00+12nnw11625 0.0 102910
15 april, thu
thu1523:00+9se11745 0.0 102910
02:00+8s116715 0.0 102810
05:00+6s11605 0.0 102910
08:00+8s11573 0.0 102828
11:00+14sw23335 0.0 1026557
14:00+16wsw24255 0.0 1024922
17:00+16wsw34295 0.0 1022969
20:00+10wsw225311 0.0 102210
16 april, fri
fri1623:00+9ssw1157100 0.0 102110
02:00+7s1161100 0.0 102010
05:00+6s1164100 0.0 102010
08:00+8ssw1162100 0.0 101830
11:00+13wsw2345100 0.0 1016711
14:00+15w343977 0.0 10151296
17:00+15w454326 0.0 10131615
20:00+10sw236495 0.0 101244